IU2RPR-3 Weather Reports


time (UTC)temp
F
wind
direction
speed
knots
gust
knots
rain 1hr
in
rain 24hr
in
rain mn
in
humidity
%
barometer
mb
20260902203131 76 0.0 0.0 0.00 0.00 0.00 58 1016.4
20260902201130 76 0.0 0.0 0.00 0.00 0.00 59 1016.5
20260902195128 77 0.0 0.0 0.00 0.00 0.00 58 1016.3
20260902193127 78 0.0 0.0 0.00 0.00 0.00 57 1016.1
20260902191126 79 0.0 0.0 0.00 0.00 0.00 54 1016.0
20260902185124 80 0.0 0.0 0.00 0.00 0.00 54 1015.7
20260902183124 82 0.0 0.0 0.00 0.00 0.00 50 1015.4
20260902181122 82 0.0 0.0 0.00 0.00 0.00 49 1015.2
20260902175120 82 0.0 0.0 0.00 0.00 0.00 49 1015.1
20260902174442 83 0.0 0.0 0.00 0.00 0.00 47 1015.0
20260902172441 88 0.0 0.0 0.00 0.00 0.00 41 1014.8
20260902170439 83 0.0 0.0 0.00 0.00 0.00 47 1014.9
20260902164437 87 0.0 0.0 0.00 0.00 0.00 42 1014.7
20260902162436 88 0.0 0.0 0.00 0.00 0.00 40 1014.8
20260902160433 92 0.0 0.0 0.00 0.00 0.00 36 1014.8
20260902154429 90 0.0 0.0 0.00 0.00 0.00 37 1015.1
20260902152427 91 0.0 0.0 0.00 0.00 0.00 39 1015.1
20260902150425 90 0.0 0.0 0.00 0.00 0.00 39 1015.3
20260902144423 88 0.0 0.0 0.00 0.00 0.00 41 1015.6
20260902142422 90 0.0 0.0 0.00 0.00 0.00 40 1015.6
20260902140420 87 0.0 0.0 0.00 0.00 0.00 42 1016.0
20260902134417 86 0.0 0.0 0.00 0.00 0.00 41 1016.2
20260902132416 86 0.0 0.0 0.00 0.00 0.00 43 1016.5
20260902130414 86 0.0 0.0 0.00 0.00 0.00 44 1016.8
20260902124412 86 0.0 0.0 0.00 0.00 0.00 44 1017.0
20260902122410 89 0.0 0.0 0.00 0.00 0.00 43 1017.0
20260902120410 84 0.0 0.0 0.00 0.00 0.00 46 1017.6
20260902114407 86 0.0 0.0 0.00 0.00 0.00 45 1017.6
20260902112406 86 0.0 0.0 0.00 0.00 0.00 44 1017.6
20260902110404 84 0.0 0.0 0.00 0.00 0.00 46 1017.9
20260902104403 82 0.0 0.0 0.00 0.00 0.00 46 1018.0
20260902102401 82 0.0 0.0 0.00 0.00 0.00 45 1018.2
20260902100357 80 0.0 0.0 0.00 0.00 0.00 46 1018.5
20260902094349 80 0.0 0.0 0.00 0.00 0.00 47 1018.5
20260902092347 80 0.0 0.0 0.00 0.00 0.00 48 1018.6
20260902090346 79 0.0 0.0 0.00 0.00 0.00 47 1018.6
20260902084344 79 0.0 0.0 0.00 0.00 0.00 49 1018.8
20260902082343 78 0.0 0.0 0.00 0.00 0.00 53 1018.8
20260902080342 77 0.0 0.0 0.00 0.00 0.00 52 1018.7
20260902074341 77 0.0 0.0 0.00 0.00 0.00 55 1018.6
20260902072340 75 0.0 0.0 0.00 0.00 0.00 59 1018.6
20260902070338 74 0.0 0.0 0.00 0.00 0.00 63 1018.5
20260902064337 73 0.0 0.0 0.00 0.00 0.00 66 1018.6
20260902062336 71 0.0 0.0 0.00 0.00 0.00 67 1018.6
20260902060334 71 0.0 0.0 0.00 0.00 0.00 69 1018.7
20260902054333 70 0.0 0.0 0.00 0.00 0.00 71 1018.5
20260902052332 70 0.0 0.0 0.00 0.00 0.00 72 1018.3
20260902050331 69 0.0 0.0 0.00 0.00 0.00 73 1018.3
20260902044329 70 0.0 0.0 0.00 0.00 0.00 72 1018.1
20260902042328 69 0.0 0.0 0.00 0.00 0.00 73 1018.1
20260902040327 70 0.0 0.0 0.00 0.00 0.00 71 1018.0
20260902034326 70 0.0 0.0 0.00 0.00 0.00 73 1017.9
20260902032324 70 0.0 0.0 0.00 0.00 0.00 73 1017.9
20260902030323 70 0.0 0.0 0.00 0.00 0.00 71 1017.9
20260902024322 71 0.0 0.0 0.00 0.00 0.00 71 1017.9
20260902022321 71 0.0 0.0 0.00 0.00 0.00 70 1017.7
20260902020320 71 0.0 0.0 0.00 0.00 0.00 70 1017.7
20260902014318 72 0.0 0.0 0.00 0.00 0.00 70 1017.7
20260902012317 71 0.0 0.0 0.00 0.00 0.00 71 1017.7
20260902010316 72 0.0 0.0 0.00 0.00 0.00 70 1017.7
20260902004314 72 0.0 0.0 0.00 0.00 0.00 70 1017.8
20260902002313 72 0.0 0.0 0.00 0.00 0.00 69 1017.7
20260902000312 72 0.0 0.0 0.00 0.00 0.00 69 1017.6
20260901234311 73 0.0 0.0 0.00 0.00 0.00 68 1017.7
20260901232309 73 0.0 0.0 0.00 0.00 0.00 67 1017.7
20260901230308 73 0.0 0.0 0.00 0.00 0.00 67 1017.7
20260901224307 74 0.0 0.0 0.00 0.00 0.00 65 1017.7
20260901222306 74 0.0 0.0 0.00 0.00 0.00 65 1017.6
20260901220305 74 0.0 0.0 0.00 0.00 0.00 65 1017.6
20260901214303 75 0.0 0.0 0.00 0.00 0.00 64 1017.6
20260901212305 75 0.0 0.0 0.00 0.00 0.00 63 1017.5
20260901210301 75 0.0 0.0 0.00 0.00 0.00 63 1017.5